TimePDT,TemperatureF,Dew PointF,Humidity,Sea Level PressureIn,VisibilityMPH,Wind Direction,Wind SpeedMPH,Gust SpeedMPH,PrecipitationIn,Events,Conditions,WindDirDegrees,DateUTC
12:53 AM,46.0,30.0,54,29.81,10.0,Calm,Calm,-,N/A,,Clear,0,2012-10-11 07:53:00
1:53 AM,46.0,30.0,54,29.81,10.0,Calm,Calm,-,N/A,,Clear,0,2012-10-11 08:53:00
2:53 AM,45.0,30.9,58,29.81,10.0,Calm,Calm,-,N/A,,Clear,0,2012-10-11 09:53:00
4:53 AM,43.0,30.9,62,29.84,10.0,SSE,4.6,-,N/A,,Clear,150,2012-10-11 11:53:00
5:53 AM,39.0,30.9,73,29.87,10.0,South,5.8,-,N/A,,Clear,170,2012-10-11 12:53:00
6:53 AM,37.9,30.9,76,29.89,10.0,SSE,5.8,-,N/A,,Clear,160,2012-10-11 13:53:00
7:53 AM,37.9,30.9,76,29.90,10.0,SSE,9.2,-,N/A,,Clear,160,2012-10-11 14:53:00
8:53 AM,39.9,32.0,73,29.89,10.0,SE,8.1,-,N/A,,Clear,140,2012-10-11 15:53:00
9:53 AM,42.1,32.0,67,29.89,10.0,SSE,8.1,-,N/A,,Clear,150,2012-10-11 16:53:00
10:53 AM,44.1,33.1,65,29.89,10.0,South,6.9,-,N/A,,Clear,170,2012-10-11 17:53:00
11:53 AM,48.0,33.1,56,29.87,10.0,SSE,5.8,-,N/A,,Clear,160,2012-10-11 18:53:00
12:53 PM,52.0,32.0,47,29.85,10.0,Calm,Calm,-,N/A,,Clear,0,2012-10-11 19:53:00
1:53 PM,54.0,30.9,41,29.82,10.0,Calm,Calm,-,N/A,,Clear,0,2012-10-11 20:53:00
3:53 PM,55.0,30.0,38,29.80,10.0,Calm,Calm,-,N/A,,Clear,0,2012-10-11 22:53:00
4:53 PM,54.0,28.9,38,29.79,10.0,Calm,Calm,-,N/A,,Clear,0,2012-10-11 23:53:00
6:53 PM,48.9,30.9,50,29.80,10.0,SSE,4.6,-,N/A,,Clear,160,2012-10-12 01:53:00
7:53 PM,46.9,32.0,56,29.83,10.0,SSE,5.8,-,N/A,,Clear,160,2012-10-12 02:53:00
8:53 PM,45.0,32.0,60,29.81,10.0,SSE,5.8,-,N/A,,Clear,160,2012-10-12 03:53:00
9:53 PM,44.1,30.9,60,29.80,10.0,Variable,5.8,-,N/A,,Clear,0,2012-10-12 04:53:00
11:53 PM,46.0,23.0,40,29.73,10.0,SSW,4.6,-,N/A,,Clear,200,2012-10-12 06:53:00